Location: Asheville, NC
(35.6000°N, 82.5500°W)
Time: 17:04:58
(UTC-04:00)

CUTE 1.7 + AOD 2 - Pass Details

Date: 09 February 2018
Orbit: 594 x 614 km, 97.5° (Epoch: 21 May)

Event Time Altitude Azimuth Distance (km) Brightness Sun altitude
Rises 19:44:58 0° 208° (SSW) 2,835 ? -20.5°
Reaches altitude 10° 19:48:00 10° 232° (SW) 1,934 ? -21.1°
Maximum altitude 19:50:23 15° 267° (W) 1,644 ? -21.6°
Drops below altitude 10° 19:52:46 10° 302° (WNW) 1,935 ? -22.1°
Sets 19:55:49 0° 326° (NW) 2,839 ? -22.7°
